Simultaneous Nadir Overpasses (SNOs) Predictions

Prediction of SNOs between METOP-A and NOAA-19 Satellite Orbit:

Table of predicted SNOs for the next 14.0 days since TLE Epoch: 8/21/2020
Index Date (METOP-A) Time (METOP-A) Lat,Lon (METOP-A) SZA (METOP-A ) Date (NOAA-19) Time (NOAA-19) Lat,Lon (NOAA-19) SZA (NOAA-19 ) Distance(km) Time Diff (sec)
1 08/29/2020 18:53:30 80.65, -89.97 71.88 08/29/2020 18:52:18 80.66, -89.80 71.88 3.27 72
2 08/29/2020 19:44:11 -80.66, 77.49 108.10 08/29/2020 19:43:15 -80.66, 77.44 108.11 0.83 56
3 08/29/2020 20:34:51 80.67,-115.11 71.93 08/29/2020 20:34:18 80.66,-115.11 71.91 1.31 33
4 08/29/2020 21:25:33 -80.65, 52.02 108.09 08/29/2020 21:25:15 -80.66, 52.13 108.08 2.01 18
5 08/29/2020 22:16:13 80.66,-140.57 71.94 08/29/2020 22:16:18 80.65,-140.42 71.94 3.00 5
6 08/29/2020 23:06:54 -80.67, 26.89 108.04 08/29/2020 23:07:15 -80.65, 26.82 108.06 2.32 21
7 08/29/2020 23:57:35 80.65,-166.04 71.95 08/29/2020 23:58:19 80.65,-166.08 71.96 1.00 44
